Regional Weather Roundup
Issued by NWS Burlington, VT

Home | Current Version | Previous Version | Text Only | Print | Product List | Glossary On
Versions: 1 2 3 4 5 6 7 8 9 10 11 12 13 14 15 16 17 18 19 20 21 22 23 24 25 26 27 28 29 30 31 32 33 34 35 36 37 38 39 40 41 42 43 44 45 46 47 48 49 50
619
ASUS41 KBTV 290010
RWRBTV
VERMONT REGIONAL WEATHER ROUNDUP
NATIONAL WEATHER SERVICE BURLINGTON VT
800 PM EDT SAT MAY 28 2016

NOTE: "FAIR" INDICATES FEW OR NO CLOUDS BELOW 12,000 FEET WITH NO
SIGNIFICANT WEATHER AND/OR OBSTRUCTIONS TO VISIBILITY.

* THESE REPORTS ARE NOT UNDER NWS QUALITY CONTROL AND/OR DO NOT
  REPORT WEATHER SUCH AS PRECIPITATION AND FOG.

VTZ001>019-290100-
_____VERMONT_____


CITY           SKY/WX    TMP DP  RH WIND       PRES   REMARKS
BURLINGTON     MOCLDY    83  58  42 N5        30.07R
6HR MIN TEMP:  83; 6HR MAX TEMP:  91;

MONTPELIER     FAIR      78  61  55 CALM      30.15R
6HR MIN TEMP:  78; 6HR MAX TEMP:  86;

MORRISVILLE    MOCLDY    77  60  55 N3        30.11R
6HR MIN TEMP:  77; 6HR MAX TEMP:  87;

ST. JOHNSBURY*   N/A     81  58  45 MISG      30.08R
6HR MIN TEMP:  81; 6HR MAX TEMP:  90;

LYNDONVILLE*   FAIR      77  57  50 NW5       30.14R
6HR MIN TEMP:  76; 6HR MAX TEMP:  84;

RUTLAND*       FAIR      79  66  64 SE5       30.09S
6HR MIN TEMP:  79; 6HR MAX TEMP:  88;

SPRINGFIELD    FAIR      79  65  62 CALM      30.08R
6HR MIN TEMP:  79; 6HR MAX TEMP:  91;

HIGHGATE*      FAIR      78  61  55 CALM      30.08S HAZE
6HR MIN TEMP:  78; 6HR MAX TEMP:  87;

NEWPORT*       FAIR      73  62  68 N5        30.13S
6HR MIN TEMP:  73; 6HR MAX TEMP:  82;

BENNINGTON     FAIR      76  67  73 S3        30.08S
6HR MIN TEMP:  76; 6HR MAX TEMP:  89;

SUTTON*          N/A     73 N/A N/A MISG        N/A

_____LAKE CHAMPLAIN_____


CITY           SKY/WX    TMP DP  RH WIND       PRES   REMARKS
BURTON ISLAND*   N/A    N/A N/A N/A E1          N/A
COLCHESTER RF*   N/A     77  63  61 N8          N/A
DIAMOND ISL*     N/A     81  59  47 N15         N/A

$$

NYZ007-026>031-035-052-083-087-290100-
_____NORTHERN NEW YORK_____


CITY           SKY/WX    TMP DP  RH WIND       PRES   REMARKS
PLATTSBURGH    CLEAR     81  58  45 N8        30.06F
6HR MIN TEMP:  81; 6HR MAX TEMP:  85;

SARANAC LAKE   PTCLDY    76  63  64 NE7       30.12R
6HR MIN TEMP:  76; 6HR MAX TEMP:  86;

MASSENA        PTCLDY    84  69  60 CALM      30.05R HAZE
6HR MIN TEMP:  84; 6HR MAX TEMP:  90;

OGDENSBURG*    CLEAR     81  70  69 CALM      30.04S
WATERTOWN      CLEAR     81  62  52 CALM      30.05R
6HR MIN TEMP:  81; 6HR MAX TEMP:  87;

ALBANY         MOCLDY    88  59  37 CALM      30.05R
6HR MIN TEMP:  88; 6HR MAX TEMP:  93;

GLENS FALLS    PTCLDY    83  67  58 CALM      30.04S
6HR MIN TEMP:  83; 6HR MAX TEMP:  90;


$$
NHZ002-005-011-290100-
_____NEW HAMPSHIRE_____


CITY           SKY/WX    TMP DP  RH WIND       PRES   REMARKS
LEBANON        PTCLDY    78  67  68 CALM      30.07R
6HR MIN TEMP:  78; 6HR MAX TEMP:  94;

MT WASHINGTON  PTCLDY    57  50  77 W9          N/A
6HR MIN TEMP:  57; 6HR MAX TEMP:  62;

PLYMOUTH       FAIR      78  67  68 CALM      30.07R
6HR MIN TEMP:  78; 6HR MAX TEMP:  91;

WHITEFIELD     CLEAR     76  62  62 CALM      30.11R
6HR MIN TEMP:  76; 6HR MAX TEMP:  88;


$$

_____REGIONAL QUEBEC LOCATIONS_____


CITY           SKY/WX    TMP DP  RH WIND       PRES   REMARKS
MONTREAL       CLOUDY    79  54  41 NE10      30.07R
QUEBEC CITY    LGT RAIN  57  50  77 NE8       30.18S
SHERBROOKE     CLEAR     72  54  53 NE6       30.13R

_____REGIONAL ONTARIO LOCATIONS_____


CITY           SKY/WX    TMP DP  RH WIND       PRES   REMARKS
OTTAWA         MOCLDY    81  64  57 E3        30.04S

______KEY______
VSB  - VISIBILITY IN MILES
WCI  - WIND CHILL INDEX
HX   - HEAT INDEX
$$
NNNN




USA.gov is the U.S. government's official web portal to all federal, state and local government web resources and services.